Wind_Speed
8 9 9 9 9 9 10 10 10 11 12 12 12 12 15 17 17 16 17 12 11 19 16 14 13 13 12 19 22 23 15 19 24 23 24 27 3 14 25 24 24 15 11 31 36
7 7 8 9 11 12 13 13 13 13 14 15 16 16 18 21 23 22 14 15 16 14 6 7 12 13 18 18 23 21 17 28 23 21 20 30 22 22 20 21 23 13 16 32 27
7 9 9 10 11 13 15 16 16 17 17 19 19 19 19 19 18 3 3 3 7 7 7 8 11 14 22 24 26 27 25 23 27 32 29 25 19 36 27 19 30 20 33 33 33
9 10 12 12 13 15 17 18 18 19 19 19 19 18 17 13 7 5 9 15 20 15 11 11 11 15 18 21 28 27 32 32 33 35 29 25 30 28 22 28 27 22 36 37 35
11 12 12 13 13 15 16 17 18 19 20 19 18 17 13 8 16 15 14 15 17 6 9 12 15 16 19 18 26 29 26 34 34 36 34 33 26 25 28 33 28 20 43 38 36
11 12 13 13 13 14 15 16 18 20 20 19 17 15 8 13 7 9 13 8 9 10 13 13 15 18 24 24 22 28 33 32 32 34 34 27 26 25 29 31 17 16 31 31 33
12 13 14 14 13 14 15 17 19 20 18 16 13 10 11 25 7 9 9 10 10 12 16 16 18 20 16 18 27 31 26 26 23 29 27 30 27 27 27 34 26 29 30 31 28
13 14 15 14 14 15 15 18 19 18 19 14 10 5 11 5 11 19 16 15 15 14 15 14 13 20 25 24 27 23 24 23 24 23 28 28 27 22 35 32 32 29 27 28 32
14 14 15 14 15 16 15 16 18 16 14 3 2 5 11 7 13 15 14 16 15 17 16 14 13 18 19 17 17 20 20 26 27 27 21 27 25 24 37 28 32 31 29 30 35
14 15 15 15 15 17 17 13 16 14 9 5 7 6 15 11 5 10 14 15 18 19 21 18 12 15 16 15 18 22 26 25 26 25 26 27 24 23 32 31 29 28 20 27 31
16 16 14 14 15 14 18 14 7 4 8 14 13 18 23 23 26 25 20 26 24 22 19 24 16 20 22 22 25 23 24 29 24 26 29 26 25 24 26 33 32 29 29 26 36
16 15 13 14 14 12 13 9 8 9 17 24 27 27 24 23 25 22 18 20 19 20 20 19 25 24 23 22 23 25 26 27 27 26 25 26 26 28 25 26 36 39 37 36 27
16 14 14 14 8 11 7 5 11 12 9 15 6 8 5 4 15 18 21 22 21 23 23 24 26 25 26 22 22 22 24 23 26 27 26 24 26 26 23 26 41 43 40 35 50
15 15 16 12 6 12 3 12 11 7 5 5 8 5 5 18 24 20 15 28 29 28 28 26 23 25 25 25 22 21 21 25 25 26 20 26 17 23 26 25 21 26 35 41 43
11 14 17 15 9 9 11 15 9 4 4 7 9 8 27 24 28 30 33 31 20 26 20 25 24 27 25 26 23 22 17 22 25 25 25 26 17 19 22 23 23 24 33 44 49
10 15 11 14 8 11 16 11 5 3 3 6 16 24 24 29 27 32 30 32 29 21 22 33 31 23 24 26 21 20 19 22 23 20 19 23 19 16 18 26 25 25 29 34 36
11 18 18 13 16 16 13 7 3 3 18 14 27 26 24 23 20 25 18 18 11 12 19 24 24 24 25 22 17 21 16 12 15 16 15 21 20 14 25 23 26 29 33 36 32
14 22 16 13 17 16 10 4 4 15 16 22 23 25 19 23 16 20 18 14 11 17 11 15 14 14 24 20 22 21 20 12 17 16 16 24 22 16 22 19 37 41 36 36 37
7 10 18 21 24 18 11 5 7 12 16 18 21 18 19 20 19 20 19 10 9 13 9 9 13 11 15 23 22 20 19 23 17 19 16 15 19 21 22 23 26 30 36 40 39
4 3 16 14 17 23 8 7 10 12 16 18 18 17 18 18 18 19 18 7 11 12 10 7 8 14 15 15 24 16 17 20 14 14 11 16 22 14 18 22 24 25 28 34 39
6 3 16 24 9 18 9 9 8 13 15 12 16 18 16 14 18 18 13 7 9 14 11 10 6 10 14 8 16 11 15 12 15 16 11 13 12 8 14 12 23 24 34 36 42
12 4 14 15 16 15 10 13 4 13 15 11 13 13 15 20 20 17 11 9 8 13 9 8 6 7 13 17 8 16 21 17 8 20 9 11 4 15 13 10 18 18 29 30 41
10 11 13 8 5 9 14 13 14 14 14 14 13 12 15 18 19 18 7 15 8 7 8 11 5 7 6 7 9 6 12 19 18 12 12 2 3 14 18 19 14 10 26 32 37
5 3 7 17 15 14 15 13 15 22 17 17 14 16 15 17 14 10 15 5 9 9 7 8 6 8 8 11 13 2 14 20 19 11 11 6 8 16 22 22 22 31 22 34 33
6 3 1 5 12 15 16 17 19 19 21 20 8 13 15 6 13 10 8 10 16 3 8 9 6 11 16 14 6 17 21 19 19 18 4 6 19 16 16 18 22 28 16 35 33
5 7 13 15 18 16 16 17 20 22 15 14 14 17 14 6 7 9 10 10 5 7 11 8 4 13 13 19 22 23 25 26 20 13 6 20 15 14 19 25 28 34 36 38 13
10 7 11 15 15 14 15 20 20 23 12 24 20 17 11 12 8 8 8 11 10 12 12 4 6 6 6 13 4 14 18 16 13 20 11 15 11 18 16 20 27 30 32 29 26
Wind_Direction
13 7 3 358 352 348 344 340 336 332 329 329 330 329 323 318 314 300 282 255 257 277 281 271 269 257 256 244 234 233 242 240 239 242 257 267 224 280 254 242 245 213 199 153 150
7 0 356 352 346 340 337 335 334 332 329 331 335 335 331 327 323 305 266 254 270 279 298 285 271 255 244 248 235 229 240 237 246 245 246 270 307 251 245 249 248 162 125 157 159
352 350 348 344 337 334 333 333 332 331 334 336 335 334 330 332 331 240 273 251 317 301 295 282 283 261 259 241 238 234 242 245 244 245 257 254 241 253 238 239 246 186 140 153 164
346 345 342 337 333 331 331 331 331 329 329 329 326 324 321 329 305 297 281 287 303 294 262 267 263 257 250 252 243 247 242 247 254 261 242 247 256 244 199 242 243 249 171 162 162
342 340 335 332 332 330 327 326 325 323 321 320 316 311 311 260 260 271 262 275 294 265 255 251 258 261 257 256 255 254 248 250 243 253 259 266 264 244 186 231 243 310 160 167 167
337 333 332 329 325 323 322 322 320 318 314 311 309 301 285 258 241 267 269 262 254 248 253 258 259 262 277 275 263 263 261 255 246 248 243 251 259 250 196 212 206 231 147 157 169
336 334 330 325 322 324 323 320 320 318 314 309 303 289 254 245 225 244 253 240 243 254 262 262 260 254 260 266 257 267 269 268 255 238 247 244 246 236 224 194 183 213 201 164 183
336 332 329 327 325 326 323 324 323 318 314 304 296 252 255 233 259 250 243 251 252 254 257 261 260 261 256 260 273 277 268 252 250 247 240 240 240 218 236 191 213 225 178 177 174
335 331 330 328 327 328 327 326 321 317 323 305 293 222 265 265 234 246 233 247 255 253 246 249 254 254 251 244 251 247 252 250 237 246 222 238 236 231 225 202 210 217 204 172 181
336 335 335 332 331 332 336 338 313 308 321 295 258 259 246 254 280 239 241 254 262 257 250 229 243 238 231 232 231 233 232 241 248 226 243 227 234 230 224 213 213 207 186 213 183
342 339 335 336 337 342 356 3 340 251 252 251 264 244 276 280 285 271 265 262 249 242 243 232 230 233 228 225 246 259 257 248 238 240 227 227 231 220 233 194 213 209 229 241 182
340 339 341 343 347 10 17 21 15 319 295 279 269 268 273 278 274 271 261 240 234 245 234 240 238 236 243 245 244 239 247 258 259 255 238 230 213 233 219 195 206 213 207 235 203
343 347 351 351 8 12 353 359 337 321 275 301 259 244 308 274 272 276 275 264 237 248 243 241 241 237 235 242 244 247 249 245 250 254 242 229 223 209 226 212 200 214 195 209 256
344 350 353 357 357 330 356 335 327 325 281 155 188 84 21 339 278 307 301 262 258 251 245 245 243 243 245 228 229 241 249 249 246 248 253 227 221 206 218 200 213 214 182 191 248
351 359 359 7 346 348 314 321 322 269 280 48 45 352 336 321 312 301 300 295 284 287 269 260 255 265 241 246 236 247 234 254 242 247 253 247 219 205 208 205 199 222 204 185 191
353 355 20 357 351 321 320 319 284 226 285 329 1 341 329 318 308 301 285 285 269 239 255 259 245 263 255 269 241 252 247 246 246 241 247 253 205 218 214 209 194 216 202 206 207
11 22 17 350 339 334 333 318 248 268 4 359 340 338 320 331 350 329 333 314 345 298 254 257 270 255 258 252 239 247 232 225 234 228 241 249 223 194 230 208 194 204 202 205 209
53 31 7 7 3 342 333 296 270 5 351 343 335 318 339 343 340 314 314 308 32 360 317 274 261 249 254 259 228 232 219 222 220 221 224 238 224 212 231 213 193 199 199 205 209
42 23 32 41 29 349 292 44 353 354 344 327 323 341 340 337 337 340 326 16 27 10 1 312 280 326 293 275 244 235 214 221 223 233 224 213 235 218 224 239 193 190 192 206 194
15 36 25 17 15 37 63 22 355 338 329 332 330 332 328 332 344 334 323 32 351 2 331 307 302 277 304 264 263 193 224 218 215 240 204 218 228 202 213 221 189 184 195 206 177
5 83 16 16 29 43 41 21 350 342 340 331 332 323 325 321 337 322 333 340 303 344 331 336 284 305 322 227 207 180 214 247 213 252 203 223 218 233 238 229 170 185 193 165 167
39 69 10 21 34 30 24 12 351 347 347 341 321 312 324 328 322 323 333 259 273 6 348 15 300 287 260 302 216 168 223 225 240 226 223 236 83 351 1 216 167 184 188 176 157
67 48 11 2 30 22 1 7 358 353 345 332 314 337 328 314 308 315 325 304 20 40 20 354 322 305 278 247 246 187 211 228 243 268 269 289 19 14 15 22 10 167 180 171 157
63 41 9 30 22 16 357 1 354 357 341 1 320 315 312 309 308 299 307 317 18 76 52 341 284 288 300 318 312 313 239 228 223 228 245 287 110 30 20 17 359 350 170 159 159
68 58 323 15 17 10 4 1 358 351 344 1 318 329 335 308 307 297 305 331 351 63 342 351 292 304 313 292 41 53 20 356 222 353 235 73 64 24 19 17 9 8 11 156 163
54 28 3 40 17 11 13 5 357 346 2 342 341 332 343 3 325 318 341 348 316 333 327 326 279 325 304 85 86 58 40 38 31 9 44 57 41 19 21 30 21 18 27 14 0
47 16 26 22 22 17 9 1 357 356 352 359 351 353 354 353 314 284 271 280 286 296 310 280 321 324 69 135 103 37 10 43 51 26 7 36 5 356 31 39 36 26 23 11 1
Height
1513 1512 1511 1509 1508 1507 1505 1503 1502 1501 1499 1498 1497 1495 1492 1491 1489 1487 1486 1488 1486 1484 1485 1486 1487 1490 1491 1490 1490 1490 1486 1477 1477 1478 1470 1462 1464 1475 1475 1474 1472 1473 1474 1486 1494
1512 1511 1510 1508 1507 1506 1504 1502 1500 1498 1496 1495 1493 1492 1490 1487 1483 1478 1482 1482 1483 1483 1483 1485 1486 1487 1487 1485 1486 1483 1475 1469 1470 1469 1467 1464 1465 1475 1473 1471 1470 1472 1474 1479 1489
1512 1510 1509 1507 1505 1503 1501 1499 1497 1496 1494 1492 1490 1489 1488 1485 1481 1477 1478 1480 1481 1481 1481 1483 1484 1484 1480 1480 1478 1476 1463 1467 1464 1464 1465 1465 1465 1475 1471 1471 1467 1467 1475 1480 1488
1511 1509 1508 1506 1504 1502 1499 1497 1494 1493 1491 1489 1488 1488 1486 1487 1483 1478 1478 1478 1479 1479 1481 1482 1481 1480 1477 1473 1471 1469 1463 1466 1464 1460 1460 1460 1462 1462 1468 1468 1466 1468 1464 1475 1487
1509 1507 1506 1504 1502 1500 1498 1495 1493 1490 1488 1487 1487 1486 1486 1486 1479 1473 1475 1476 1476 1477 1479 1479 1478 1476 1471 1469 1468 1458 1459 1459 1461 1459 1456 1457 1453 1455 1459 1467 1465 1468 1459 1468 1478
1508 1506 1504 1502 1500 1498 1496 1494 1491 1488 1485 1484 1484 1483 1483 1483 1476 1470 1472 1474 1475 1478 1478 1477 1476 1475 1471 1466 1462 1461 1456 1452 1452 1453 1454 1452 1451 1450 1449 1463 1466 1471 1463 1470 1475
1508 1505 1503 1501 1499 1497 1494 1491 1488 1485 1482 1480 1480 1479 1480 1472 1473 1473 1470 1472 1473 1475 1474 1474 1474 1474 1468 1465 1462 1459 1456 1448 1443 1446 1446 1450 1448 1440 1446 1455 1459 1466 1465 1456 1474
1507 1504 1502 1499 1497 1494 1492 1489 1485 1482 1479 1478 1477 1477 1472 1467 1468 1468 1469 1469 1470 1471 1471 1471 1470 1469 1467 1466 1462 1459 1453 1450 1441 1440 1442 1445 1438 1437 1444 1447 1452 1458 1464 1455 1456
1505 1503 1500 1497 1495 1492 1490 1487 1483 1480 1476 1475 1477 1477 1467 1463 1463 1464 1465 1465 1466 1466 1466 1467 1467 1466 1464 1462 1461 1455 1452 1441 1440 1433 1436 1436 1436 1434 1441 1442 1446 1449 1457 1452 1465
1504 1501 1498 1496 1493 1491 1488 1485 1481 1478 1477 1476 1476 1479 1464 1460 1461 1461 1462 1463 1463 1462 1461 1462 1462 1459 1456 1453 1449 1446 1441 1437 1430 1429 1427 1429 1429 1432 1432 1437 1440 1446 1454 1453 1461
1503 1500 1497 1495 1492 1489 1487 1483 1484 1479 1479 1473 1468 1463 1461 1459 1459 1458 1459 1458 1456 1456 1453 1453 1454 1446 1441 1441 1441 1437 1432 1429 1420 1419 1418 1417 1423 1423 1425 1429 1435 1440 1448 1457 1460
1502 1499 1496 1494 1491 1490 1488 1489 1490 1489 1473 1465 1460 1459 1458 1457 1454 1454 1455 1451 1451 1445 1445 1447 1434 1436 1435 1432 1430 1430 1432 1426 1417 1409 1408 1408 1411 1415 1415 1419 1426 1434 1440 1453 1454
1500 1498 1495 1493 1490 1490 1491 1490 1489 1487 1479 1456 1452 1453 1454 1456 1452 1449 1449 1442 1442 1439 1434 1432 1424 1426 1426 1425 1425 1424 1425 1422 1421 1405 1398 1400 1403 1407 1404 1411 1417 1425 1436 1451 1456
1499 1497 1495 1493 1492 1491 1490 1489 1487 1486 1476 1449 1449 1454 1455 1456 1446 1447 1441 1441 1434 1428 1425 1417 1414 1414 1412 1414 1418 1421 1416 1416 1415 1411 1408 1389 1404 1397 1400 1402 1410 1417 1426 1435 1439
1499 1497 1495 1491 1491 1491 1490 1487 1488 1487 1470 1453 1454 1457 1459 1460 1452 1445 1440 1434 1432 1423 1422 1411 1415 1411 1406 1403 1404 1406 1410 1412 1410 1407 1401 1387 1395 1387 1393 1399 1405 1411 1416 1426 1437
1499 1497 1495 1494 1492 1491 1487 1485 1487 1484 1463 1456 1461 1463 1460 1457 1448 1440 1435 1428 1422 1423 1426 1416 1412 1408 1418 1401 1399 1402 1405 1409 1406 1404 1407 1389 1383 1393 1387 1388 1397 1408 1409 1415 1421
1501 1498 1494 1494 1492 1488 1485 1486 1481 1472 1463 1463 1469 1466 1459 1450 1448 1446 1436 1435 1439 1427 1415 1402 1402 1401 1404 1403 1399 1401 1407 1416 1419 1408 1406 1384 1381 1386 1379 1379 1387 1397 1402 1409 1415
1501 1499 1497 1495 1491 1489 1487 1487 1476 1473 1479 1481 1477 1468 1462 1459 1458 1448 1439 1434 1448 1436 1420 1412 1422 1406 1398 1390 1396 1394 1398 1405 1421 1409 1401 1379 1383 1374 1372 1369 1377 1385 1395 1405 1413
1502 1503 1499 1495 1490 1487 1487 1490 1491 1492 1490 1485 1478 1472 1470 1464 1460 1450 1443 1449 1453 1450 1450 1428 1403 1399 1399 1397 1390 1391 1395 1392 1404 1389 1392 1379 1372 1367 1364 1364 1370 1379 1389 1396 1407
1503 1504 1502 1498 1493 1491 1491 1496 1497 1496 1491 1486 1483 1479 1476 1469 1465 1456 1448 1462 1456 1452 1451 1439 1428 1400 1396 1390 1389 1382 1389 1399 1394 1402 1397 1380 1371 1370 1359 1358 1362 1372 1380 1389 1401
1503 1504 1506 1497 1496 1497 1498 1497 1498 1494 1491 1488 1483 1480 1475 1471 1468 1465 1459 1461 1460 1451 1448 1444 1432 1409 1408 1382 1387 1386 1392 1396 1392 1389 1385 1392 1373 1353 1354 1352 1358 1367 1373 1385 1397
1507 1509 1508 1504 1502 1498 1497 1496 1497 1492 1489 1486 1483 1478 1475 1471 1469 1463 1463 1458 1456 1452 1450 1448 1437 1415 1393 1377 1373 1381 1385 1387 1400 1392 1374 1373 1384 1371 1352 1351 1356 1364 1370 1381 1395
1509 1511 1510 1506 1506 1504 1500 1497 1494 1490 1486 1483 1480 1477 1477 1472 1469 1458 1460 1450 1451 1453 1456 1454 1438 1419 1387 1379 1377 1382 1386 1385 1386 1380 1380 1390 1395 1378 1368 1363 1361 1362 1369 1377 1389
1512 1518 1516 1510 1507 1506 1502 1498 1493 1489 1486 1484 1481 1476 1476 1467 1462 1459 1452 1446 1448 1452 1456 1454 1446 1442 1431 1423 1412 1391 1387 1381 1378 1386 1384 1387 1397 1392 1387 1386 1384 1374 1368 1378 1387
1516 1517 1516 1513 1510 1507 1504 1499 1493 1490 1487 1484 1481 1475 1471 1468 1460 1457 1450 1448 1450 1453 1453 1453 1447 1433 1425 1418 1416 1423 1410 1399 1372 1397 1391 1409 1406 1409 1408 1408 1405 1393 1381 1378 1388
1520 1520 1516 1514 1515 1509 1507 1501 1496 1490 1488 1485 1478 1473 1468 1464 1465 1461 1457 1455 1456 1454 1453 1451 1444 1437 1416 1417 1419 1428 1429 1423 1422 1423 1422 1410 1416 1419 1416 1418 1413 1402 1398 1402 1398
1524 1523 1522 1519 1517 1512 1509 1504 1498 1491 1489 1483 1477 1473 1467 1466 1464 1462 1461 1460 1458 1457 1455 1451 1446 1439 1412 1421 1408 1427 1456 1449 1447 1442 1433 1429 1439 1424 1420 1425 1425 1419 1413 1419 1419